BWA125 LPMA-GCLP

Flight info

Callsign BWA125
Flight time N/A
Altitude 35000
Route LPMA/23 N0456F350 GOSG1W GOSGA DCT ORTIS ORTI6C GCLP/03L
Aircraft A320/M-SDFGHIM1RTUWXY/LB1

Departure

Time 2026-05-05 08:07
Airport Cristiano Ronaldo International Airport (LPMA)

Arrival

Time N/A
Airport Gran Canaria Airport (GCLP)
Time Latitude Longitude Altitude Speed Heading
2026-05-05 07:56 32.69412 -16.77591 174 ft 0 kts 138°
2026-05-05 07:59 32.69413 -16.77591 174 ft 0 kts 138°
2026-05-05 07:59 32.69418 -16.77597 174 ft 2 kts 138°
2026-05-05 08:00 32.69430 -16.77610 173 ft 2 kts 138°
2026-05-05 08:00 32.69442 -16.77622 173 ft 0 kts 139°
2026-05-05 08:01 32.69442 -16.77617 173 ft 1 kts 92°
2026-05-05 08:01 32.69472 -16.77631 172 ft 3 kts 326°
2026-05-05 08:01 32.69519 -16.77574 174 ft 20 kts 47°
2026-05-05 08:02 32.69607 -16.77464 174 ft 19 kts 46°
2026-05-05 08:02 32.69700 -16.77351 166 ft 17 kts 46°
2026-05-05 08:02 32.69754 -16.77283 169 ft 6 kts 46°
2026-05-05 08:02 32.69777 -16.77254 171 ft 5 kts 46°
2026-05-05 08:03 32.69788 -16.77241 172 ft 0 kts 46°
2026-05-05 08:03 32.69800 -16.77225 172 ft 8 kts 46°
2026-05-05 08:03 32.69853 -16.77182 176 ft 11 kts 12°
2026-05-05 08:04 32.69952 -16.77179 178 ft 11 kts 360°
2026-05-05 08:04 32.70025 -16.77164 180 ft 16 kts 36°
2026-05-05 08:04 32.70126 -16.77052 183 ft 20 kts 45°
2026-05-05 08:04 32.70215 -16.76947 189 ft 16 kts 45°
2026-05-05 08:05 32.70281 -16.76869 188 ft 12 kts 45°
2026-05-05 08:05 32.70352 -16.76829 196 ft 14 kts
2026-05-05 08:05 32.70410 -16.76784 201 ft 14 kts 69°
2026-05-05 08:05 32.70331 -16.76758 195 ft 20 kts 255°
2026-05-05 08:06 32.70260 -16.76891 193 ft 18 kts 227°
2026-05-05 08:06 32.70159 -16.77011 184 ft 40 kts 224°
2026-05-05 08:06 32.69759 -16.77478 176 ft 120 kts 224°
2026-05-05 08:06 32.68978 -16.78386 252 ft 190 kts 224°
2026-05-05 08:07 32.67950 -16.79592 549 ft 235 kts 224°
2026-05-05 08:07 32.66780 -16.81081 1259 ft 247 kts 237°
2026-05-05 08:07 32.66213 -16.83038 2317 ft 259 kts 267°
2026-05-05 08:07 32.66550 -16.85144 3372 ft 265 kts 297°
2026-05-05 08:08 32.67732 -16.86820 4402 ft 269 kts 327°
2026-05-05 08:08 32.69391 -16.87609 5338 ft 275 kts 354°
2026-05-05 08:08 32.71303 -16.87387 6021 ft 282 kts 22°
2026-05-05 08:08 32.72917 -16.86120 6575 ft 280 kts 50°
2026-05-05 08:09 32.73833 -16.84105 7085 ft 280 kts 78°
2026-05-05 08:09 32.74087 -16.81808 7594 ft 280 kts 87°
2026-05-05 08:09 32.74171 -16.79487 8110 ft 284 kts 89°
2026-05-05 08:09 32.74210 -16.77133 8658 ft 283 kts 92°
2026-05-05 08:10 32.73877 -16.74839 9462 ft 284 kts 116°
2026-05-05 08:10 32.72708 -16.72990 10507 ft 283 kts 144°
2026-05-05 08:10 32.70934 -16.72000 11517 ft 286 kts 172°
2026-05-05 08:10 32.68942 -16.72104 12560 ft 289 kts 199°
2026-05-05 08:11 32.67225 -16.73279 13626 ft 292 kts 226°
2026-05-05 08:11 32.66131 -16.75296 14620 ft 294 kts 252°
2026-05-05 08:11 32.65572 -16.77681 15242 ft 312 kts 249°
2026-05-05 08:11 32.64402 -16.79895 15879 ft 323 kts 225°
2026-05-05 08:12 32.62530 -16.81427 16600 ft 336 kts 202°
2026-05-05 08:12 32.60202 -16.81970 17307 ft 351 kts 180°
2026-05-05 08:12 32.57774 -16.81382 18068 ft 366 kts 158°
2026-05-05 08:12 32.55559 -16.79784 18800 ft 381 kts 144°
2026-05-05 08:13 32.53464 -16.77771 19493 ft 393 kts 141°
2026-05-05 08:13 32.51239 -16.75913 20482 ft 391 kts 155°
2026-05-05 08:13 32.48777 -16.74653 21493 ft 390 kts 161°
2026-05-05 08:13 32.46235 -16.73563 22531 ft 388 kts 162°
2026-05-05 08:14 32.43685 -16.72557 23612 ft 384 kts 163°
2026-05-05 08:14 32.41152 -16.71609 24538 ft 379 kts 164°
2026-05-05 08:14 32.38639 -16.70719 25368 ft 378 kts 165°
2026-05-05 08:14 32.36102 -16.69932 26105 ft 374 kts 168°
2026-05-05 08:15 32.33519 -16.69230 26562 ft 378 kts 169°
2026-05-05 08:15 32.30919 -16.68572 26887 ft 389 kts 170°
2026-05-05 08:15 32.28300 -16.67942 27632 ft 387 kts 170°
2026-05-05 08:15 32.25650 -16.67326 28310 ft 383 kts 170°
2026-05-05 08:16 32.22971 -16.66735 28628 ft 391 kts 171°
2026-05-05 08:16 32.20273 -16.66171 29062 ft 400 kts 170°
2026-05-05 08:16 32.17539 -16.65523 29751 ft 396 kts 169°
2026-05-05 08:16 32.14822 -16.64838 30086 ft 407 kts 168°
2026-05-05 08:17 32.12064 -16.64122 30559 ft 407 kts 168°
2026-05-05 08:17 32.09434 -16.63430 31033 ft 408 kts 168°
2026-05-05 08:17 32.06844 -16.62803 31440 ft 411 kts 172°
2026-05-05 08:17 32.04232 -16.62391 31847 ft 413 kts 174°
2026-05-05 08:18 32.01353 -16.62057 32285 ft 416 kts 176°
2026-05-05 08:18 31.98453 -16.61781 32725 ft 419 kts 176°
2026-05-05 08:18 31.95536 -16.61539 33182 ft 421 kts 177°
2026-05-05 08:18 31.92613 -16.61332 33774 ft 419 kts 178°
2026-05-05 08:19 31.89685 -16.61137 34108 ft 425 kts 177°
2026-05-05 08:19 31.86715 -16.60847 34316 ft 432 kts 176°
2026-05-05 08:19 31.83709 -16.60502 34519 ft 435 kts 176°
2026-05-05 08:19 31.80716 -16.60135 34723 ft 431 kts 176°
2026-05-05 08:20 31.77755 -16.59759 34931 ft 424 kts 176°
2026-05-05 08:20 31.74827 -16.59402 34982 ft 423 kts 177°
2026-05-05 08:20 31.68981 -16.58729 35010 ft 421 kts 177°
2026-05-05 08:21 31.63178 -16.58096 35038 ft 421 kts 178°
2026-05-05 08:21 31.57352 -16.57521 35055 ft 420 kts 178°
2026-05-05 08:22 31.51537 -16.56888 35060 ft 419 kts 178°
2026-05-05 08:22 31.45744 -16.56226 35060 ft 417 kts 178°
2026-05-05 08:23 31.39963 -16.55596 35056 ft 417 kts 178°
2026-05-05 08:23 31.34181 -16.54988 35050 ft 416 kts 179°
2026-05-05 08:24 31.28422 -16.54382 35051 ft 414 kts 179°
2026-05-05 08:24 31.22687 -16.53817 35047 ft 413 kts 180°
2026-05-05 08:25 31.16964 -16.53222 35050 ft 413 kts 180°
2026-05-05 08:25 31.11252 -16.52623 35042 ft 411 kts 180°
2026-05-05 08:26 31.05601 -16.52054 35033 ft 409 kts 180°
2026-05-05 08:26 30.99929 -16.51463 35031 ft 409 kts 181°
2026-05-05 08:27 30.94256 -16.50888 35030 ft 408 kts 181°
2026-05-05 08:27 30.88609 -16.50310 35022 ft 406 kts 181°
2026-05-05 08:28 30.82989 -16.49727 35018 ft 405 kts 182°
2026-05-05 08:28 30.77370 -16.49168 35013 ft 405 kts 182°
2026-05-05 08:29 30.71759 -16.48590 35010 ft 404 kts 182°
2026-05-05 08:30 30.63203 -16.47271 34333 ft 447 kts 176°
2026-05-05 08:30 30.60094 -16.46354 33972 ft 474 kts 171°
2026-05-05 08:30 30.56879 -16.45277 33606 ft 486 kts 168°
2026-05-05 08:30 30.53753 -16.44265 33976 ft 446 kts 180°
2026-05-05 08:31 30.50840 -16.44288 34369 ft 396 kts 197°
2026-05-05 08:31 30.48256 -16.44992 34677 ft 371 kts 204°
2026-05-05 08:31 30.45782 -16.45848 34839 ft 375 kts 197°
2026-05-05 08:31 30.43111 -16.46064 34894 ft 394 kts 186°
2026-05-05 08:32 30.40344 -16.45886 34911 ft 401 kts 184°
2026-05-05 08:32 30.34818 -16.45234 34941 ft 400 kts 182°
2026-05-05 08:33 30.29330 -16.44210 34971 ft 399 kts 181°
2026-05-05 08:33 30.23867 -16.43551 34976 ft 393 kts 186°
2026-05-05 08:34 30.18414 -16.43167 34959 ft 391 kts 186°
2026-05-05 08:34 30.13913 -16.42835 34953 ft 389 kts 186°
2026-05-05 08:35 30.08512 -16.42371 34951 ft 389 kts 186°
2026-05-05 08:35 30.03110 -16.41848 34943 ft 390 kts 185°
2026-05-05 08:36 29.97707 -16.41189 34941 ft 389 kts 185°
2026-05-05 08:36 29.92346 -16.40604 34936 ft 385 kts 187°
2026-05-05 08:37 29.87002 -16.40121 34928 ft 385 kts 187°
2026-05-05 08:37 29.81663 -16.39586 34919 ft 385 kts 187°
2026-05-05 08:38 29.76375 -16.39074 34912 ft 383 kts 187°
2026-05-05 08:38 29.71069 -16.38579 34915 ft 382 kts 187°
2026-05-05 08:39 29.65770 -16.38064 34903 ft 382 kts 187°
2026-05-05 08:39 29.60470 -16.37481 34888 ft 385 kts 183°
2026-05-05 08:39 29.57824 -16.36578 34910 ft 410 kts 169°
2026-05-05 08:40 29.55230 -16.35080 34899 ft 421 kts 165°
2026-05-05 08:40 29.50078 -16.31796 34887 ft 424 kts 164°
2026-05-05 08:41 29.44987 -16.28457 34870 ft 424 kts 164°
2026-05-05 08:41 29.39883 -16.25085 34856 ft 423 kts 165°
2026-05-05 08:42 29.34726 -16.21832 34850 ft 423 kts 165°
2026-05-05 08:42 29.29575 -16.18626 34841 ft 423 kts 166°
2026-05-05 08:43 29.24428 -16.15415 34833 ft 423 kts 165°
2026-05-05 08:43 29.19263 -16.12167 34828 ft 425 kts 165°
2026-05-05 08:44 29.14084 -16.08892 34808 ft 425 kts 165°
2026-05-05 08:44 29.08897 -16.05649 34807 ft 424 kts 165°
2026-05-05 08:45 29.03745 -16.02433 34799 ft 425 kts 165°
2026-05-05 08:45 28.98548 -15.99194 34792 ft 426 kts 165°
2026-05-05 08:46 28.93343 -15.95940 34552 ft 430 kts 165°
2026-05-05 08:46 28.90649 -15.94281 33408 ft 442 kts 164°
2026-05-05 08:46 28.87930 -15.92605 32361 ft 445 kts 164°
2026-05-05 08:46 28.85205 -15.90913 31348 ft 446 kts 163°
2026-05-05 08:47 28.82480 -15.89204 30363 ft 447 kts 162°
2026-05-05 08:47 28.79764 -15.87466 29318 ft 447 kts 162°
2026-05-05 08:47 28.77061 -15.85742 28339 ft 443 kts 162°
2026-05-05 08:47 28.74371 -15.84059 27398 ft 439 kts 162°
2026-05-05 08:48 28.71699 -15.82402 26499 ft 435 kts 162°
2026-05-05 08:48 28.69050 -15.80764 25624 ft 431 kts 162°
2026-05-05 08:48 28.66406 -15.79136 25391 ft 434 kts 162°
2026-05-05 08:48 28.63741 -15.77498 25221 ft 436 kts 161°
2026-05-05 08:49 28.61077 -15.75854 25054 ft 435 kts 161°
2026-05-05 08:49 28.58426 -15.74210 24887 ft 434 kts 161°
2026-05-05 08:49 28.55777 -15.72557 24753 ft 434 kts 161°
2026-05-05 08:49 28.53143 -15.70901 24723 ft 433 kts 161°
2026-05-05 08:50 28.50499 -15.69259 24702 ft 434 kts 161°
2026-05-05 08:50 28.47844 -15.67622 24690 ft 434 kts 161°
2026-05-05 08:50 28.45197 -15.65994 24674 ft 432 kts 162°
2026-05-05 08:50 28.42581 -15.64387 24668 ft 433 kts 161°
2026-05-05 08:51 28.39923 -15.62756 24659 ft 435 kts 161°
2026-05-05 08:51 28.37262 -15.61120 24647 ft 435 kts 161°
2026-05-05 08:51 28.34610 -15.59483 24631 ft 433 kts 161°
2026-05-05 08:51 28.31972 -15.57847 24610 ft 432 kts 161°
2026-05-05 08:52 28.29331 -15.56201 24608 ft 433 kts 161°
2026-05-05 08:52 28.26691 -15.54565 24604 ft 432 kts 161°
2026-05-05 08:52 28.24053 -15.52943 24604 ft 432 kts 161°
2026-05-05 08:52 28.21400 -15.51319 24600 ft 433 kts 161°
2026-05-05 08:53 28.18754 -15.49701 24595 ft 431 kts 161°
2026-05-05 08:53 28.16121 -15.48088 24597 ft 431 kts 161°
2026-05-05 08:53 28.13479 -15.46471 24592 ft 432 kts 161°
2026-05-05 08:53 28.10831 -15.44847 24590 ft 432 kts 161°
2026-05-05 08:54 28.08210 -15.43185 24578 ft 435 kts 156°
2026-05-05 08:54 28.05799 -15.41014 24581 ft 449 kts 147°
2026-05-05 08:54 28.03507 -15.38571 24580 ft 454 kts 144°
2026-05-05 08:54 28.01267 -15.36031 24576 ft 455 kts 143°
2026-05-05 08:55 27.99069 -15.33458 24570 ft 454 kts 143°
2026-05-05 08:55 27.96903 -15.30866 24571 ft 454 kts 142°
2026-05-05 08:55 27.94742 -15.28255 24565 ft 454 kts 143°
2026-05-05 08:55 27.92541 -15.25702 24558 ft 453 kts 144°
2026-05-05 08:56 27.90340 -15.23216 24558 ft 452 kts 144°
2026-05-05 08:56 27.88099 -15.20722 24558 ft 452 kts 144°
2026-05-05 08:56 27.85852 -15.18243 24557 ft 450 kts 145°
2026-05-05 08:56 27.83605 -15.15774 24545 ft 451 kts 144°
2026-05-05 08:57 27.81360 -15.13288 24499 ft 453 kts 144°
2026-05-05 08:57 27.78915 -15.11134 24057 ft 437 kts 160°
2026-05-05 08:57 27.76160 -15.09940 23615 ft 413 kts 178°
2026-05-05 08:57 27.73370 -15.09816 23097 ft 394 kts 195°
2026-05-05 08:58 27.70822 -15.10753 22584 ft 383 kts 214°
2026-05-05 08:58 27.68793 -15.12636 22081 ft 376 kts 232°
2026-05-05 08:58 27.67554 -15.15202 21593 ft 375 kts 251°
2026-05-05 08:58 27.66971 -15.18089 21089 ft 379 kts 257°
2026-05-05 08:59 27.66575 -15.21037 20591 ft 380 kts 260°
2026-05-05 08:59 27.66589 -15.24029 20106 ft 385 kts 272°
2026-05-05 08:59 27.67009 -15.27005 19623 ft 383 kts 275°
2026-05-05 08:59 27.67533 -15.29938 19158 ft 380 kts 277°
2026-05-05 09:00 27.67943 -15.32832 18693 ft 378 kts 268°
2026-05-05 09:00 27.67900 -15.35765 18212 ft 370 kts 263°
2026-05-05 09:00 27.67741 -15.38650 17682 ft 370 kts 266°
2026-05-05 09:00 27.68014 -15.41560 17162 ft 374 kts 275°
2026-05-05 09:01 27.68536 -15.44422 16654 ft 370 kts 278°
2026-05-05 09:01 27.69193 -15.47242 16158 ft 378 kts 286°
2026-05-05 09:01 27.70552 -15.49792 15418 ft 382 kts 305°
2026-05-05 09:01 27.72637 -15.51686 14482 ft 390 kts 325°
2026-05-05 09:02 27.75223 -15.52685 13530 ft 399 kts 345°
2026-05-05 09:02 27.78009 -15.52671 12523 ft 404 kts
2026-05-05 09:02 27.80667 -15.51643 11554 ft 407 kts 26°
2026-05-05 09:02 27.82903 -15.49709 10608 ft 405 kts 46°
2026-05-05 09:03 27.84457 -15.47102 9654 ft 399 kts 66°
2026-05-05 09:03 27.85172 -15.44120 8645 ft 390 kts 83°
2026-05-05 09:03 27.85715 -15.41151 7650 ft 383 kts 70°